[[{"header":{"parameterUnit":"m.s-1","parameterCategory":1,"la1":30.2991,"la2":30.254,"lo1":-89.0895,"lo2":-89.0444,"dy":0.0017,"dx":0.0017,"nx":28,"ny":28,"refTime":"2023-07-31T21:00:00:Z","depth":0,"parameterNumber":2,"parameterNumberName":"U-component_of_WINDS"},"data":[0,0,0,0,0,0,0,0,0,0,0,0,0,0,0,0,0,0,0,0,0,0,0,0,0,0,0,0,0,0,0,0,0,0,0,0,0,0,0,0,0,0,0,0,0,0,0,0,0,0,0,0,0,0,0,0,0,0,3.841,3.8411,0,3.8502,3.8503,3.8504,3.8415,3.8411,3.8408,3.8405,3.8502,3.8508,3.8513,0,0,0,0,0,0,0,0,0,0,0,0,0,3.8159,3.8164,3.841,3.8411,3.8412,3.8502,3.8503,3.8505,3.8416,3.8411,3.8407,3.8403,3.85,3.8507,3.8514,0,0,0,0,0,0,0,0,0,0,0,0,0,3.8261,3.8166,3.841,3.8379,3.8377,3.8502,3.8503,3.8505,3.8417,3.8411,3.8406,3.8401,3.8498,3.8506,3.8515,3.8676,0,0,3.8542,3.8546,0,0,0,0,0,0,0,0,3.8256,3.8271,3.8382,3.8381,3.8379,3.8442,3.845,3.8563,3.8418,3.8402,3.8404,3.8398,3.8486,3.8496,3.8525,3.8681,3.8685,3.8543,3.8548,3.8552,3.8554,0,0,0,0,0,0,0,3.8249,3.8266,3.8446,3.8384,3.8382,3.8361,3.8369,3.8471,3.8473,3.8403,3.8396,3.8408,3.8484,3.8517,3.8526,3.8686,3.8543,3.855,3.8556,3.8559,3.8979,3.8985,0,0,0,0,0,0,3.8245,3.8261,3.8444,3.8449,3.8303,3.837,3.8379,3.8427,3.8471,3.8473,3.8413,3.8404,3.8504,3.8516,3.853,3.8721,3.8552,3.856,3.8565,3.8973,3.898,3.8987,0,0,0,0,0,0,3.824,3.8262,3.844,3.8353,3.8374,3.838,3.8434,3.8432,3.8463,3.8479,3.8479,3.8445,3.85,3.8517,3.864,3.8723,3.8564,3.8572,3.8966,3.8975,3.8983,3.9105,0,0,0,0,0,0,3.8233,3.826,3.8321,3.8355,3.8379,3.8549,3.8439,3.8437,3.8479,3.8468,3.8509,3.8511,3.8497,3.8627,3.8649,3.8732,3.8579,3.8959,3.897,3.8981,3.9093,3.9116,3.9136,0,0,0,0,0,3.8224,3.8352,3.8325,3.8347,3.8455,3.8553,3.8567,3.8548,3.8486,3.8547,3.8557,3.851,3.8711,3.8641,3.8664,3.8751,3.8954,3.8967,3.898,3.9084,3.9112,3.9136,0,0,0,0,0,0,3.8329,3.8356,3.8326,3.8469,3.851,3.8538,3.8615,3.8579,3.8638,3.8626,3.86,3.861,3.874,3.8758,3.868,3.891,3.8822,3.8841,3.8893,3.892,3.8941,3.8933,3.8586,0,0,0,0,0,3.8368,3.8445,3.8465,3.859,3.8611,3.861,3.8652,3.8634,3.8675,3.8692,3.8711,3.8753,3.8825,3.8874,3.8941,3.9096,3.9103,3.9167,3.9189,3.9206,3.9222,3.9305,3.9333,3.903,3.903,3.9029,0,0,3.8451,3.8476,3.8526,3.8611,3.864,3.8721,3.8625,3.8714,3.8774,3.8706,3.8822,3.8838,3.8884,3.9023,3.9085,3.9042,3.9308,3.9223,3.9237,3.9243,3.9321,3.935,3.9375,3.9039,3.9037,3.9036,0,0,3.8643,3.8669,3.8775,3.8806,3.8851,3.885,3.8875,3.891,3.8917,3.9034,3.8984,3.9055,3.9181,3.9215,3.9249,3.9454,3.9413,3.9477,3.9589,3.967,3.9693,3.9714,3.9787,3.9813,3.9493,3.9494,3.9494,0,3.874,3.8858,3.8835,3.8927,3.8966,3.8908,3.9015,3.9047,3.9112,3.9141,3.9091,3.9247,3.9274,3.942,3.947,3.95,3.9528,3.9472,3.9692,3.9713,3.9732,3.9801,3.9828,3.9501,3.95,3.9499,3.9499,0,3.8975,3.9058,3.9139,3.9202,3.925,3.935,3.9342,3.9394,3.9372,3.9376,3.9495,3.9526,3.9598,3.9631,3.9611,3.9775,3.9746,3.9695,3.9606,3.9769,3.9833,3.9859,3.9512,3.9509,3.9507,3.9505,0,0,3.9235,3.9284,3.9314,3.9341,3.9387,3.9451,3.9548,3.9618,3.9663,3.971,3.9791,3.9899,3.9851,3.989,3.9873,3.9944,4.0103,3.9883,3.9884,3.9922,4.0285,4.0322,4.0353,4.0077,4.0082,4.0085,4.028,0,3.9427,3.9594,3.9576,3.9736,3.9812,3.9758,3.9843,3.988,3.9887,3.9953,3.996,4.0036,3.9968,3.9991,4.0059,4.007,4.0176,4.0055,4.0151,4.0155,4.014,4.0387,4.0427,4.0609,4.0305,4.031,4.0313,0,3.9673,3.9728,3.9896,3.9929,3.996,4.0036,4.0098,4.0162,4.0204,4.0204,4.0247,4.0218,4.0316,4.0226,4.0361,4.028,4.0319,4.033,4.0336,4.0344,4.0243,4.04,4.0667,4.0694,4.0352,4.0349,4.0346,0,3.9845,3.9961,4.0075,4.0101,4.0143,4.0198,4.0218,4.0254,4.0297,4.0352,4.038,4.0446,4.0483,4.0535,4.0524,4.046,4.0662,4.0572,4.0665,4.0665,4.0709,4.0706,4.0985,4.0736,4.0735,4.0735,4.0734,0,4.006,4.0165,4.0152,4.0223,4.0338,4.0317,4.0432,4.0446,4.0478,4.0551,4.0509,4.0578,4.0561,4.063,4.0623,4.0735,4.0752,4.0755,4.0751,4.0758,4.0758,4.0782,4.0768,4.0742,4.0741,4.0739,4.0738,0,4.0271,4.0267,4.0388,4.0418,4.0428,4.0511,4.0537,4.0604,4.0607,4.0699,4.072,4.0725,4.0804,4.0799,4.0888,4.0883,4.1022,4.1004,4.1007,4.1003,4.1096,4.1087,4.14,4.1439,4.1166,4.1168,4.117,0,4.0408,4.0487,4.0525,4.057,4.0593,4.0667,4.071,4.0692,4.0739,4.0793,4.0853,4.0928,4.0987,4.1115,4.1127,4.1196,4.1179,4.1284,4.1189,4.1193,4.1179,4.1174,4.1181,4.1302,4.1305,4.1308,4.131,0,4.0652,4.0646,4.071,4.0773,4.0826,4.0875,4.092,4.096,4.0946,4.1002,4.1081,4.1127,4.1217,4.1292,4.1357,4.1378,4.1343,4.134,4.1364,4.1371,4.1369,4.1371,4.1057,4.1332,4.133,4.1328,4.1327,4.1326,4.083,4.0897,4.0933,4.1006,4.1037,4.108,4.1144,4.1155,4.122,4.1292,4.1278,4.1367,4.1407,4.149,4.1518,4.1588,4.155,4.1587,4.1596,4.1605,4.1614,4.1359,4.16,4.1599,4.1598,4.1598,4.1597,0,4.107,4.1091,4.1158,4.1221,4.1278,4.1238,4.1286,4.1336,4.1415,4.1455,4.1513,4.1604,4.1677,4.1695,4.1764,4.1817,4.1802,4.1835,4.1831,4.1836,4.1645,4.1615,4.1846,4.1846,4.1846,4.1846,4.1846,4.1846,4.1202,4.1313,4.1312,4.1438,4.1459,4.1545,4.1575,4.1615,4.1646,4.1749,4.1809,4.182,4.1851,4.1922,4.1987,4.199,4.2017,4.2057,4.2054,4.1875,4.185,4.1826,4.1798,4.2064,4.2064,4.2239,4.2241,4.2242]},{"header":{"parameterUnit":"m.s-1","parameterCategory":1,"la1":30.2991,"la2":30.254,"lo1":-89.0895,"lo2":-89.0444,"dy":0.0017,"dx":0.0017,"nx":28,"ny":28,"refTime":"2023-07-31T21:00:00:Z","depth":0,"parameterNumber":3,"parameterNumberName":"V-component_of_WINDS"},"data":[0,0,0,0,0,0,0,0,0,0,0,0,0,0,0,0,0,0,0,0,0,0,0,0,0,0,0,0,0,0,0,0,0,0,0,0,0,0,0,0,0,0,0,0,0,0,0,0,0,0,0,0,0,0,0,0,0,0,0.0671,0.0672,0,0.0713,0.0713,0.0714,0.073,0.073,0.073,0.073,0.0771,0.0772,0.0774,0,0,0,0,0,0,0,0,0,0,0,0,0,0.0605,0.0606,0.0671,0.0672,0.0672,0.0713,0.0713,0.0714,0.073,0.073,0.073,0.073,0.0771,0.0772,0.0774,0,0,0,0,0,0,0,0,0,0,0,0,0,0.0639,0.0606,0.0671,0.0685,0.0687,0.0713,0.0713,0.0714,0.073,0.073,0.073,0.073,0.077,0.0772,0.0774,0.0788,0,0,0.078,0.078,0,0,0,0,0,0,0,0,0.0637,0.0641,0.0683,0.0685,0.0686,0.0716,0.0705,0.0739,0.073,0.0714,0.073,0.073,0.0753,0.0756,0.0764,0.079,0.0792,0.078,0.0781,0.0782,0.0782,0,0,0,0,0,0,0,0.0634,0.0639,0.0688,0.0683,0.0686,0.0689,0.0694,0.0712,0.0734,0.0715,0.0716,0.0721,0.0754,0.0763,0.0765,0.0793,0.078,0.0781,0.0782,0.0783,0.0831,0.0832,0,0,0,0,0,0,0.063,0.0637,0.0687,0.0689,0.0661,0.069,0.0696,0.0707,0.0734,0.0738,0.0721,0.0722,0.076,0.0763,0.0767,0.0785,0.0782,0.0783,0.0784,0.0831,0.0831,0.0832,0,0,0,0,0,0,0.0628,0.0634,0.0685,0.0664,0.067,0.0692,0.0704,0.0708,0.0716,0.0738,0.0742,0.0726,0.076,0.0764,0.0783,0.0787,0.0784,0.0786,0.0831,0.0831,0.0831,0.0822,0,0,0,0,0,0,0.0626,0.0633,0.064,0.0664,0.0671,0.0701,0.0704,0.0709,0.072,0.0721,0.0744,0.0748,0.076,0.078,0.0785,0.0789,0.0787,0.0831,0.0831,0.0831,0.0822,0.0822,0.0822,0,0,0,0,0,0.0624,0.0635,0.064,0.0646,0.068,0.0701,0.0705,0.0719,0.072,0.0726,0.074,0.0747,0.0785,0.0782,0.0787,0.0792,0.083,0.0831,0.0831,0.0822,0.0822,0.0822,0,0,0,0,0,0,0.0611,0.0639,0.0644,0.0664,0.068,0.0703,0.0712,0.0719,0.0735,0.0735,0.0752,0.0757,0.0774,0.0785,0.078,0.0807,0.0808,0.081,0.0799,0.0799,0.0799,0.0796,0.0789,0,0,0,0,0,0.0611,0.0626,0.0649,0.0664,0.0672,0.069,0.07,0.0709,0.0727,0.0733,0.0749,0.0765,0.078,0.079,0.0806,0.0823,0.0828,0.0829,0.0829,0.0829,0.083,0.0839,0.084,0.0833,0.0833,0.0833,0,0,0.061,0.0627,0.0635,0.0662,0.0675,0.069,0.0696,0.0712,0.0723,0.0736,0.0754,0.0765,0.0784,0.0802,0.081,0.0812,0.0833,0.083,0.0829,0.0831,0.084,0.084,0.0841,0.0833,0.0833,0.0833,0,0,0.0616,0.063,0.0644,0.0658,0.0678,0.069,0.0693,0.0716,0.0724,0.0742,0.0752,0.0765,0.0792,0.0805,0.0815,0.0824,0.0831,0.0829,0.0828,0.0837,0.0837,0.0838,0.0841,0.0842,0.083,0.083,0.083,0,0.0613,0.0636,0.0651,0.0666,0.0677,0.0689,0.0702,0.0714,0.0739,0.0746,0.0747,0.078,0.0794,0.0814,0.0816,0.0824,0.0828,0.0827,0.0836,0.0837,0.0838,0.0841,0.0842,0.0829,0.0829,0.0829,0.0829,0,0.063,0.0646,0.0655,0.0678,0.069,0.0704,0.072,0.073,0.0738,0.0749,0.0768,0.0784,0.0803,0.0808,0.0816,0.0829,0.083,0.0833,0.0835,0.0838,0.0841,0.0842,0.0829,0.0829,0.0829,0.0829,0,0,0.0631,0.0661,0.0664,0.0674,0.0697,0.0709,0.0723,0.0742,0.075,0.0766,0.0778,0.08,0.0803,0.0814,0.0823,0.0831,0.0836,0.0833,0.0834,0.0833,0.0851,0.0849,0.085,0.0841,0.0841,0.0841,0.085,0,0.064,0.0667,0.068,0.0701,0.0715,0.0726,0.0738,0.0753,0.0764,0.0777,0.0789,0.0804,0.0807,0.0814,0.0821,0.0834,0.084,0.0834,0.0852,0.0852,0.0847,0.0852,0.0849,0.0856,0.0851,0.0851,0.0851,0,0.0655,0.0671,0.0693,0.0713,0.072,0.073,0.0748,0.0761,0.0777,0.0784,0.0796,0.0805,0.0819,0.0819,0.0839,0.0834,0.0842,0.0849,0.085,0.0852,0.0852,0.0854,0.0859,0.086,0.0853,0.0853,0.0853,0,0.0653,0.068,0.0696,0.0705,0.0729,0.0736,0.0746,0.0762,0.0772,0.0787,0.0794,0.081,0.0819,0.0831,0.0843,0.0842,0.0861,0.0863,0.0867,0.0867,0.0872,0.0871,0.0878,0.0876,0.0876,0.0876,0.0876,0,0.0662,0.0675,0.0696,0.0706,0.0721,0.0735,0.0748,0.0759,0.0773,0.0785,0.0795,0.0806,0.0822,0.0835,0.0844,0.0859,0.0863,0.0868,0.0871,0.0868,0.0867,0.0874,0.0873,0.0876,0.0876,0.0876,0.0876,0,0.0663,0.0677,0.0696,0.0717,0.0722,0.0732,0.0749,0.0759,0.077,0.0785,0.0789,0.0806,0.0821,0.0834,0.0854,0.0861,0.0876,0.0879,0.087,0.0872,0.0876,0.0875,0.0887,0.0889,0.0885,0.0885,0.0885,0,0.0668,0.0679,0.07,0.0709,0.0719,0.0733,0.0743,0.0757,0.0767,0.0786,0.0793,0.0809,0.0822,0.0846,0.0859,0.0874,0.0878,0.0881,0.088,0.0876,0.0878,0.0877,0.0878,0.0881,0.0881,0.0881,0.0881,0,0.0676,0.0682,0.0697,0.0713,0.0725,0.0739,0.0752,0.0759,0.0775,0.0785,0.0801,0.0811,0.0831,0.0847,0.0863,0.0873,0.0879,0.0881,0.0883,0.088,0.0874,0.0877,0.087,0.0881,0.0881,0.0881,0.0881,0.0881,0.0679,0.0689,0.0705,0.0721,0.0732,0.0745,0.0755,0.0766,0.078,0.0798,0.0804,0.082,0.0835,0.0858,0.0867,0.0879,0.088,0.0883,0.0884,0.0884,0.0884,0.0872,0.0882,0.0882,0.0882,0.0882,0.0882,0,0.0687,0.0698,0.0712,0.0731,0.0743,0.0748,0.0763,0.0773,0.0786,0.08,0.0813,0.083,0.0845,0.0859,0.0874,0.0881,0.0884,0.0884,0.0884,0.0886,0.0882,0.0879,0.0881,0.0881,0.0881,0.0881,0.0881,0.0881,0.0693,0.0709,0.0717,0.0738,0.0749,0.0765,0.0773,0.0784,0.0795,0.0814,0.0826,0.0835,0.0849,0.0865,0.0878,0.0881,0.0886,0.0886,0.089,0.0886,0.0886,0.0886,0.0883,0.0887,0.0887,0.0893,0.0893,0.0893]}]]